DateTimeUTC,F1_A11,F1_S11,BsB_S11,BsG_S11,BsR_S11,BbsB_S11,BbsG_S11,BbsR_S11,BaB_A11,BaG_A11,BaR_A11,Tu_S11,T_S11,Uu_S11,U_S11,P_S11,T1_A11
2021-08-10T20:00:00Z,00040200,20000000,,,,,,,-000.30,-000.26,0000.03,19.0,25.7,10.1,06.7,0675.6,31.1
2021-08-10T20:01:00Z,00040200,20000000,,,,,,,0000.59,0000.42,0000.40,19.0,25.7,10.1,06.7,0675.6,31.1
2021-08-10T20:02:00Z,00040200,20000000,,,,,,,0000.40,0000.08,0000.31,19.0,25.7,10.1,06.7,0675.6,31.1
2021-08-10T20:03:00Z,00040200,60000000,,,,,,,0000.06,0000.77,0000.50,19.0,25.7,10.1,06.7,0675.5,31.1
2021-08-10T20:04:00Z,00040200,40000000,0003.16,0001.83,0001.55,0000.44,0000.19,0000.10,0000.70,0000.35,0000.28,19.1,25.5,10.3,07.0,0676.4,31.1
2021-08-10T20:05:00Z,00040200,00000000,0002.80,0002.44,0001.51,-000.03,0000.26,0000.35,0000.28,0000.20,0000.13,19.2,25.4,10.4,07.1,0676.5,31.0
2021-08-10T20:06:00Z,00040200,00000000,0003.07,0002.50,0001.67,0001.03,0000.22,0000.10,0000.66,0000.75,0000.82,19.2,25.4,10.3,07.1,0676.5,31.0
2021-08-10T20:07:00Z,00040200,00000000,0002.80,0002.11,0001.84,0000.11,0000.33,0000.35,0000.35,0000.25,-000.01,19.2,25.4,10.5,07.1,0676.5,31.1
2021-08-10T20:08:00Z,00040200,00000000,0003.09,0002.44,0001.86,-000.13,0000.49,0000.46,0001.13,0000.91,0000.96,19.2,25.4,10.4,07.1,0676.5,31.1
2021-08-10T20:09:00Z,00040200,00000000,0003.27,0002.44,0001.90,0000.48,0000.55,0000.10,0000.59,0000.61,0000.58,19.2,25.4,10.6,07.3,0676.5,31.0
2021-08-10T20:10:00Z,00040200,00000000,0003.35,0002.43,0002.03,0000.35,0000.20,0000.41,-000.08,0000.31,0000.14,19.2,25.4,10.6,07.2,0676.6,31.1
2021-08-10T20:11:00Z,00040200,00000000,0002.77,0002.31,0001.44,0000.41,0000.36,0000.24,0000.33,0000.00,0000.36,19.2,25.4,10.3,07.1,0676.6,31.1
2021-08-10T20:12:00Z,00040200,00000000,0003.30,0002.51,0001.57,-000.10,0000.33,0000.52,0000.96,0001.09,0001.02,19.2,25.4,10.5,07.2,0676.5,31.1
2021-08-10T20:13:00Z,00040200,00000000,0003.06,0002.67,0001.83,0000.25,0000.27,0000.15,0000.62,0000.47,0000.40,19.2,25.4,10.7,07.3,0676.5,31.0
2021-08-10T20:14:00Z,00040200,00000000,0002.99,0002.37,0001.78,0000.51,0000.16,0000.42,0000.64,0000.81,0000.75,19.2,25.4,10.6,07.2,0676.5,31.0
2021-08-10T20:15:00Z,00040200,00000000,0003.70,0002.45,0001.60,0000.25,0000.59,0000.20,0000.69,0000.44,0000.15,19.2,25.4,10.8,07.4,0676.5,31.0
2021-08-10T20:16:00Z,00040200,00000000,0003.28,0002.72,0001.76,0000.68,0000.42,0000.19,0000.29,0000.42,0000.53,19.2,25.4,10.8,07.4,0676.6,31.1
2021-08-10T20:17:00Z,00040200,00000000,0003.66,0002.58,0001.69,0000.43,0000.28,0000.51,0000.39,0000.50,0000.36,19.2,25.4,10.8,07.4,0676.6,31.1
2021-08-10T20:18:00Z,00040200,00000000,0003.02,0002.80,0001.74,0000.28,0000.32,0000.48,0001.03,0000.68,0001.09,19.2,25.4,10.9,07.5,0676.6,31.1
2021-08-10T20:19:00Z,00040200,00000000,0002.99,0002.36,0001.38,-000.17,-000.08,0000.04,0000.55,0000.81,0000.34,19.2,25.4,11.1,07.6,0676.6,31.1
2021-08-10T20:20:00Z,00040200,00000000,0003.27,0001.96,0001.46,0000.18,0000.58,0000.47,0000.46,-000.17,0000.19,19.2,25.4,11.2,07.7,0676.6,31.1
2021-08-10T20:21:00Z,00040200,00000000,0002.58,0002.18,0001.38,0000.22,0000.19,0000.05,0000.16,0000.54,0000.51,19.2,25.4,11.1,07.6,0676.5,31.0
2021-08-10T20:22:00Z,00040200,00000000,0003.38,0001.96,0001.47,0000.08,0000.38,0000.23,0000.55,0000.63,0000.08,19.2,25.4,11.0,07.5,0676.5,31.0
2021-08-10T20:23:00Z,00040200,00000000,0002.68,0001.92,0001.56,0000.27,0000.43,0000.21,0000.34,0000.41,0000.49,19.2,25.3,11.0,07.6,0676.5,31.1
2021-08-10T20:24:00Z,00040200,00000000,0002.86,0001.72,0001.50,0000.47,0000.27,0000.44,0000.67,0000.39,0000.52,19.2,25.4,10.9,07.5,0676.5,31.0
2021-08-10T20:25:00Z,00040200,00000000,0003.11,0002.12,0001.75,0000.23,0000.26,0000.41,0000.51,0000.66,0000.43,19.2,25.3,11.0,07.6,0676.6,31.0
2021-08-10T20:26:00Z,00040200,00000000,0003.20,0002.07,0001.55,0000.32,0000.53,0000.28,0000.09,-000.05,0000.14,19.2,25.3,10.9,07.5,0676.6,31.0
2021-08-10T20:27:00Z,00040200,00000000,0003.58,0002.22,0001.51,0000.34,0000.06,0000.10,0000.15,0000.56,0000.40,19.2,25.3,10.9,07.5,0676.6,31.0
2021-08-10T20:28:00Z,00040200,00000000,0002.51,0002.13,0001.45,0000.58,0000.53,0000.37,0000.64,0000.11,0000.59,19.2,25.3,10.9,07.5,0676.5,31.0
2021-08-10T20:29:00Z,00040200,00000000,0003.55,0002.04,0001.50,0000.70,0000.48,0000.30,0000.49,0000.47,0000.19,19.2,25.3,10.9,07.5,0676.6,31.0
2021-08-10T20:30:00Z,00040200,00000000,0003.00,0002.20,0001.52,0000.85,0000.30,0000.42,0000.63,0000.81,0000.68,19.1,25.3,10.9,07.5,0676.6,31.0
2021-08-10T20:31:00Z,00040200,00000000,0003.16,0001.76,0001.55,0000.52,0000.25,0000.41,0000.17,0000.55,0000.65,19.2,25.3,11.0,07.6,0676.5,31.0
2021-08-10T20:32:00Z,00040200,00000000,0002.91,0001.92,0001.09,0000.45,0000.15,-000.03,0000.51,0000.47,0000.08,19.2,25.3,10.9,07.5,0676.6,31.0
2021-08-10T20:33:00Z,00040200,00000000,0003.10,0001.92,0001.54,0000.44,0000.21,0000.23,0000.44,0000.04,0000.26,19.2,25.3,10.9,07.5,0676.6,31.0
2021-08-10T20:34:00Z,00040200,00000000,0002.85,0002.02,0001.36,0000.65,0000.21,-000.02,0000.37,0000.07,0000.61,19.2,25.3,11.0,07.6,0676.6,31.0
2021-08-10T20:35:00Z,00040200,00000000,0002.48,0001.76,0001.47,0000.15,0000.24,0000.45,0000.60,0000.91,0000.28,19.2,25.3,10.9,07.5,0676.7,31.1
2021-08-10T20:36:00Z,00040200,00000000,0002.96,0002.06,0001.51,0000.19,0000.42,0000.33,0000.63,0000.45,0000.37,19.2,25.3,10.9,07.5,0676.6,31.0
2021-08-10T20:37:00Z,00040200,00000000,0002.27,0002.36,0001.32,0000.47,0000.05,0000.34,0000.24,0000.39,0000.62,19.2,25.3,11.2,07.7,0676.6,31.0
2021-08-10T20:38:00Z,00040200,00000000,0003.19,0002.10,0001.84,0000.97,0000.28,0000.27,0000.39,0000.45,0000.46,19.2,25.3,11.1,07.6,0676.7,31.1
2021-08-10T20:39:00Z,00040200,00000000,0003.17,0001.91,0001.59,-000.08,0000.32,0000.34,0000.49,0000.25,0000.33,19.2,25.3,11.0,07.6,0676.7,31.1
2021-08-10T20:40:00Z,00040200,00000000,0002.77,0001.98,0001.59,0000.25,0000.09,0000.39,0000.61,0000.39,0000.24,19.1,25.3,11.0,07.6,0676.7,31.0
2021-08-10T20:41:00Z,00040200,00000000,0003.23,0002.34,0001.11,0000.89,0000.27,0000.12,-000.09,0000.48,0000.54,19.1,25.3,11.1,07.7,0676.7,31.1
2021-08-10T20:42:00Z,00040200,00000000,0002.25,0002.38,0001.74,0000.52,0000.20,0000.35,0000.64,0000.31,0000.20,19.1,25.3,11.1,07.6,0676.7,31.0
2021-08-10T20:43:00Z,00040200,00000000,0002.68,0001.79,0001.40,0000.58,0000.31,0000.33,0000.62,0000.07,0000.19,19.1,25.3,11.2,07.7,0676.8,31.0
2021-08-10T20:44:00Z,00040200,00000000,0002.33,0001.84,0001.66,0000.78,0000.40,0000.19,0000.19,0001.13,0000.75,19.1,25.3,11.2,07.7,0676.8,31.0
2021-08-10T20:45:00Z,00040200,00000000,0001.86,0001.84,0001.17,0000.90,0000.06,-000.02,0000.57,0000.44,0000.24,19.1,25.2,11.3,07.7,0676.8,31.0
2021-08-10T20:46:00Z,00040200,00000000,0002.59,0001.92,0001.40,0000.71,0000.29,0000.31,0000.70,0000.60,0000.81,19.1,25.2,11.4,07.8,0676.7,31.0
2021-08-10T20:47:00Z,00040200,00000000,0001.98,0001.77,0001.51,0000.27,0000.19,0000.34,0000.17,0000.27,0000.21,19.1,25.2,11.4,07.9,0676.7,31.0
2021-08-10T20:48:00Z,00040200,00000000,0001.56,0001.79,0001.42,-000.02,0000.31,0000.24,0000.37,0000.28,0000.11,19.1,25.2,11.4,07.8,0676.7,31.0
2021-08-10T20:49:00Z,00040200,00000000,0002.39,0001.77,0001.40,0000.28,0000.19,0000.25,0000.37,0000.36,0000.38,19.1,25.2,11.4,07.9,0676.7,31.0
2021-08-10T20:50:00Z,00040200,00000000,0002.33,0001.78,0001.01,0000.46,0000.06,0000.25,0000.44,0000.05,0000.44,19.1,25.2,11.4,07.8,0676.7,31.0
2021-08-10T20:51:00Z,00040200,00000000,0002.23,0001.82,0001.21,0000.58,0000.12,0000.56,0000.06,0000.23,0000.18,19.1,25.2,11.5,07.9,0676.7,31.0
2021-08-10T20:52:00Z,00040200,00000000,0002.25,0001.71,0001.32,0000.54,-000.18,0000.50,0000.68,0000.55,0000.44,19.1,25.2,11.6,08.0,0676.7,31.0
2021-08-10T20:53:00Z,00040200,00000000,0002.12,0001.86,0001.00,0000.96,0000.18,0000.30,0000.23,0000.46,0000.30,19.1,25.2,11.6,08.0,0676.7,31.0
2021-08-10T20:54:00Z,00040200,00000000,0002.64,0001.53,0001.32,0000.35,0000.32,0000.21,0000.54,0000.56,0000.55,19.1,25.2,11.6,08.0,0676.7,31.0
2021-08-10T20:55:00Z,00040200,00000000,0001.85,0001.58,0001.32,0000.56,0000.38,0000.49,0000.23,0000.50,0000.65,19.1,25.2,11.6,08.0,0676.6,31.0
2021-08-10T20:56:00Z,00040200,00000000,0001.52,0001.72,0001.09,0000.76,0000.19,0000.23,0000.43,-000.26,-000.07,19.1,25.2,11.7,08.0,0676.6,31.0
2021-08-10T20:57:00Z,00040200,40000000,,,,,,,-000.51,-000.18,-000.21,19.2,25.2,11.4,07.9,0676.6,31.0
2021-08-10T20:58:00Z,00040200,60000000,,,,,,,-000.01,0000.10,0000.15,18.9,25.3,11.6,07.8,0675.6,31.0
2021-08-10T20:59:00Z,00040200,20000000,,,,,,,0000.48,0000.17,0000.17,18.9,25.4,11.6,07.8,0675.6,31.0
